GW0944 Weather Reports


time (UTC)temp
C
wind
direction
speed
KPH
gust
KPH
rain 1hr
cm
rain 24hr
cm
rain mn
cm
humidity
%
barometer
mb
20260506081014 14 187 1.6 3.2 0.00 0.00 0.00 81 1007.8
20260506080512 15 323 1.6 1.6 0.00 0.00 0.00 82 1007.7
20260506073455 14 51 3.2 3.2 0.00 0.00 0.00 81 1006.8
20260506072952 14 3 1.6 1.6 0.00 0.00 0.00 81 1007.0
20260506072449 14 4 1.6 3.2 0.00 0.00 0.00 80 1007.2
20260506071947 15 358 1.6 3.2 0.00 0.00 0.00 81 1007.3
20260506071445 15 356 1.6 1.6 0.00 0.00 0.00 80 1007.3
20260506070941 15 116 3.2 4.8 0.00 0.00 0.00 80 1007.4
20260506070438 15 138 1.6 3.2 0.00 0.00 0.00 81 1007.5
20260506062416 15 76 1.6 3.2 0.00 0.00 0.00 80 1007.1
20260506061912 15 51 0.0 1.6 0.00 0.00 0.00 82 1007.4
20260506061409 15 112 4.8 4.8 0.00 0.00 0.00 81 1007.2
20260506060907 15 52 3.2 8.0 0.00 0.00 0.00 81 1006.9
20260506060404 15 88 4.8 4.8 0.00 0.00 0.00 81 1007.3
20260506051336 16 36 1.6 3.2 0.00 0.00 0.00 80 1007.4
20260506050834 16 85 1.6 3.2 0.00 0.00 0.00 81 1007.3
20260506050331 16 12 1.6 4.8 0.00 0.00 0.00 81 1007.2
20260506044821 17 130 1.6 1.6 0.00 0.00 0.00 81 1007.1
20260506044319 17 48 3.2 4.8 0.00 0.00 0.00 80 1007.1
20260506043816 17 143 1.6 1.6 0.00 0.00 0.00 80 1007.2
20260506043314 17 341 4.8 9.7 0.00 0.00 0.00 80 1007.1
20260506042812 17 37 9.7 12.9 0.00 0.00 0.00 80 1007.3
20260506042311 17 57 8.0 12.9 0.00 0.00 0.00 80 1006.8
20260506041809 17 357 1.6 3.2 0.00 0.00 0.00 80 1007.1
20260506041305 17 66 3.2 8.0 0.00 0.00 0.00 79 1007.0
20260506040803 17 220 1.6 3.2 0.00 0.00 0.00 80 1006.9
20260506040300 17 95 4.8 8.0 0.00 0.00 0.00 79 1006.8
20260506035756 17 9 6.4 11.3 0.00 0.00 0.00 79 1006.6
20260506035253 17 222 1.6 3.2 0.00 0.00 0.00 80 1006.4
20260506034750 18 49 3.2 4.8 0.00 0.00 0.00 79 1006.5
20260506034248 18 67 3.2 4.8 0.00 0.00 0.00 79 1006.2
20260506033744 18 44 1.6 3.2 0.00 0.00 0.00 79 1006.3
20260506033241 18 194 3.2 3.2 0.00 0.00 0.00 78 1006.1
20260506032738 18 191 1.6 3.2 0.00 0.00 0.00 79 1006.2
20260506032235 18 28 4.8 8.0 0.00 0.00 0.00 79 1006.1
20260506031732 19 90 4.8 8.0 0.00 0.00 0.00 79 1005.9
20260506031230 19 52 3.2 4.8 0.00 0.00 0.00 79 1006.0
20260506030728 19 59 3.2 8.0 0.00 0.00 0.00 78 1005.8
20260506030225 20 223 4.8 8.0 0.00 0.00 0.00 78 1005.8
20260506025721 20 34 3.2 4.8 0.00 0.00 0.00 77 1005.9
20260506025218 20 24 3.2 4.8 0.00 0.00 0.00 77 1005.5
20260506024715 20 302 4.8 9.7 0.00 0.00 0.00 77 1005.5
20260506024211 20 80 0.0 1.6 0.00 0.00 0.00 77 1005.3
20260506023708 20 24 1.6 3.2 0.00 0.00 0.00 77 1005.5
20260506023205 20 43 1.6 3.2 0.00 0.00 0.00 76 1005.1
20260506022702 20 1 1.6 3.2 0.00 0.00 0.00 76 1004.9
20260506022159 20 323 1.6 1.6 0.00 0.00 0.00 76 1004.7
20260506021657 20 131 1.6 1.6 0.00 0.00 0.00 76 1004.5
20260506021154 20 237 3.2 3.2 0.00 0.00 0.00 75 1004.3
20260506020651 20 177 0.0 1.6 0.00 0.00 0.00 75 1004.4
20260506020149 21 292 3.2 3.2 0.00 0.00 0.00 75 1004.4
20260506015646 21 261 0.0 0.0 0.00 0.00 0.00 74 1004.3
20260506015144 21 237 0.0 1.6 0.00 0.00 0.00 74 1003.9
20260506014641 21 72 1.6 3.2 0.00 0.00 0.00 74 1003.8
20260506014136 21 331 3.2 3.2 0.00 0.00 0.00 74 1004.0
20260506013635 21 337 1.6 1.6 0.00 0.00 0.00 73 1003.8
20260506013131 21 155 3.2 3.2 0.00 0.00 0.00 73 1003.9
20260506012627 21 19 0.0 1.6 0.00 0.00 0.00 73 1003.5
20260506012124 21 247 1.6 1.6 0.00 0.00 0.00 73 1003.8
20260506011622 21 235 1.6 1.6 0.00 0.00 0.00 73 1004.0
20260506011118 21 38 1.6 3.2 0.00 0.00 0.00 73 1003.5
20260506010617 22 95 0.0 3.2 0.00 0.00 0.00 72 1003.8
20260506010113 22 31 1.6 3.2 0.00 0.00 0.00 72 1003.5
20260506005611 22 54 1.6 1.6 0.00 0.00 0.00 72 1003.4
20260506005107 22 220 1.6 1.6 0.00 0.00 0.00 72 1003.3
20260506004604 22 238 1.6 1.6 0.00 0.00 0.00 71 1003.2
20260506004100 22 302 3.2 4.8 0.00 0.00 0.00 69 1002.6
20260506003557 23 36 4.8 8.0 0.00 0.00 0.00 69 1002.7
20260506003053 23 23 1.6 3.2 0.00 0.00 0.00 70 1002.7
20260506002549 23 121 1.6 3.2 0.00 0.00 0.00 68 1002.7
20260506002045 23 144 1.6 1.6 0.00 0.00 0.00 68 1002.4
20260506001541 23 23 1.6 4.8 0.00 0.00 0.00 67 1002.4
20260506001039 24 343 4.8 8.0 0.00 0.00 0.00 67 1002.4
20260506000536 24 348 4.8 4.8 0.00 0.00 0.00 68 1002.6
20260506000033 25 40 3.2 3.2 0.00 0.00 0.00 67 1002.4
20260505235531 25 26 3.2 3.2 0.00 0.00 0.00 67 1002.3
20260505235028 25 127 1.6 3.2 0.00 0.00 0.00 66 1002.3
20260505234525 26 358 1.6 3.2 0.00 0.00 0.00 65 1002.4
20260505234022 26 72 1.6 3.2 0.00 0.00 0.00 65 1002.0
20260505233519 26 293 4.8 4.8 0.00 0.00 0.00 64 1001.8
20260505233017 27 325 3.2 4.8 0.00 0.00 0.00 64 1001.8
20260505232514 27 251 4.8 4.8 0.00 0.00 0.00 64 1001.9
20260505232012 27 267 1.6 1.6 0.00 0.00 0.00 63 1002.1
20260505231508 28 293 4.8 4.8 0.00 0.00 0.00 62 1001.7
20260505231008 28 283 1.6 3.2 0.00 0.00 0.00 61 1001.3
20260505230504 28 264 6.4 8.0 0.00 0.00 0.00 60 1001.6
20260505230000 28 227 4.8 8.0 0.00 0.00 0.00 58 1001.4
20260505225457 28 233 1.6 1.6 0.00 0.00 0.00 58 1001.4
20260505224953 29 277 9.7 11.3 0.00 0.00 0.00 58 1001.0
20260505224450 30 222 4.8 8.0 0.00 0.00 0.00 57 1001.0
20260505223948 30 259 6.4 8.0 0.00 0.00 0.00 55 1001.1
20260505223444 30 300 8.0 11.3 0.00 0.00 0.00 53 1001.2
20260505222941 30 295 4.8 8.0 0.00 0.00 0.00 52 1001.2
20260505222437 30 29 3.2 4.8 0.00 0.00 0.00 51 1000.7
20260505221933 31 228 3.2 4.8 0.00 0.00 0.00 50 1000.7
20260505221431 31 338 4.8 8.0 0.00 0.00 0.00 49 1000.8
20260505220928 31 288 4.8 8.0 0.00 0.00 0.00 49 1000.8
20260505220425 31 257 8.0 11.3 0.00 0.00 0.00 49 1000.7
20260505215922 31 280 3.2 3.2 0.00 0.00 0.00 49 1000.4
20260505215420 32 277 8.0 11.3 0.00 0.00 0.00 49 1000.5
20260505214918 33 262 1.6 3.2 0.00 0.00 0.00 50 1000.6
20260505214415 33 270 0.0 0.0 0.00 0.00 0.00 49 1000.6
20260505213912 33 295 0.0 1.6 0.00 0.00 0.00 49 1000.6
20260505213410 33 227 4.8 4.8 0.00 0.00 0.00 48 1000.4
20260505212906 33 236 6.4 12.9 0.00 0.00 0.00 49 1000.4
20260505212403 32 278 1.6 3.2 0.00 0.00 0.00 50 1000.3
20260505211859 33 297 4.8 8.0 0.00 0.00 0.00 50 1000.6
20260505211357 33 245 4.8 4.8 0.00 0.00 0.00 50 1000.6
20260505210853 33 264 1.6 3.2 0.00 0.00 0.00 49 1000.6
20260505210350 33 283 4.8 8.0 0.00 0.00 0.00 51 1000.7
20260505205847 33 202 4.8 11.3 0.00 0.00 0.00 51 1000.9
20260505205345 32 198 4.8 4.8 0.00 0.00 0.00 54 1000.8
20260505204842 33 222 3.2 3.2 0.00 0.00 0.00 56 1000.9
20260505204340 33 268 4.8 4.8 0.00 0.00 0.00 55 1000.8
20260505203837 33 303 1.6 1.6 0.00 0.00 0.00 56 1001.1
20260505203333 32 248 4.8 8.0 0.00 0.00 0.00 56 1001.0
20260505202830 33 218 6.4 9.7 0.00 0.00 0.00 55 1001.0
20260505202326 33 278 4.8 4.8 0.00 0.00 0.00 56 1001.3
20260505201822 32 248 4.8 4.8 0.00 0.00 0.00 57 1001.4
20260505201320 32 236 1.6 3.2 0.00 0.00 0.00 58 1001.3
20260505200818 32 85 4.8 4.8 0.00 0.00 0.00 57 1001.2
20260505200315 32 250 1.6 3.2 0.00 0.00 0.00 58 1001.6
20260505195810 32 211 6.4 9.7 0.00 0.00 0.00 58 1001.2
20260505195308 31 183 8.0 11.3 0.00 0.00 0.00 58 1001.4
20260505194804 31 251 1.6 3.2 0.00 0.00 0.00 59 1001.7
20260505194302 31 184 6.4 9.7 0.00 0.00 0.00 59 1001.7
20260505193757 31 255 4.8 4.8 0.00 0.00 0.00 59 1001.7
20260505193255 31 240 4.8 8.0 0.00 0.00 0.00 61 1001.6
20260505192753 31 219 1.6 3.2 0.00 0.00 0.00 62 1001.8
20260505192250 31 216 6.4 8.0 0.00 0.00 0.00 61 1001.4
20260505191748 31 212 4.8 8.0 0.00 0.00 0.00 61 1001.4
20260505191247 31 150 4.8 4.8 0.00 0.00 0.00 62 1001.4
20260505190742 30 184 3.2 4.8 0.00 0.00 0.00 62 1001.6
20260505190237 30 137 4.8 8.0 0.00 0.00 0.00 62 1001.3
20260505185734 30 232 3.2 3.2 0.00 0.00 0.00 65 1001.4
20260505185230 30 278 4.8 9.7 0.00 0.00 0.00 64 1001.7
20260505184726 30 243 4.8 8.0 0.00 0.00 0.00 64 1001.9
20260505184224 30 293 3.2 3.2 0.00 0.00 0.00 67 1001.7
20260505183720 30 223 4.8 8.0 0.00 0.00 0.00 65 1001.6
20260505183218 29 207 4.8 9.7 0.00 0.00 0.00 66 1002.1
20260505182714 29 216 1.6 1.6 0.00 0.00 0.00 67 1001.9
20260505182212 28 207 4.8 4.8 0.00 0.00 0.00 67 1001.7
20260505181708 29 237 1.6 3.2 0.00 0.00 0.00 67 1001.8
20260505181206 30 206 4.8 8.0 0.00 0.00 0.00 67 1001.8
20260505180702 29 243 3.2 3.2 0.00 0.00 0.00 66 1001.8
20260505180159 30 202 4.8 4.8 0.00 0.00 0.00 66 1001.7
20260505175654 29 205 3.2 3.2 0.00 0.00 0.00 66 1002.0
20260505175151 29 237 1.6 3.2 0.00 0.00 0.00 66 1001.9
20260505174648 28 202 4.8 8.0 0.00 0.00 0.00 67 1002.0
20260505174144 28 350 3.2 3.2 0.00 0.00 0.00 68 1001.8
20260505173641 28 197 3.2 4.8 0.00 0.00 0.00 69 1001.8
20260505173138 28 219 3.2 3.2 0.00 0.00 0.00 69 1001.7
20260505172635 28 193 4.8 9.7 0.00 0.00 0.00 70 1001.9
20260505172132 28 216 3.2 3.2 0.00 0.00 0.00 70 1001.9
20260505171626 28 234 4.8 8.0 0.00 0.00 0.00 70 1001.9
20260505171124 28 197 4.8 8.0 0.00 0.00 0.00 71 1002.0
20260505170621 27 222 3.2 3.2 0.00 0.00 0.00 70 1001.9
20260505170117 27 219 4.8 8.0 0.00 0.00 0.00 70 1001.9
20260505165612 27 232 3.2 3.2 0.00 0.00 0.00 71 1002.1
20260505165108 27 205 1.6 3.2 0.00 0.00 0.00 72 1002.1
20260505164604 27 193 4.8 4.8 0.00 0.00 0.00 71 1002.2
20260505164102 27 219 4.8 9.7 0.00 0.00 0.00 72 1002.1
20260505163600 27 239 4.8 8.0 0.00 0.00 0.00 73 1001.8
20260505163057 27 236 1.6 3.2 0.00 0.00 0.00 74 1001.8
20260505162549 27 179 4.8 8.0 0.00 0.00 0.00 74 1002.0
20260505162047 26 266 4.8 4.8 0.00 0.00 0.00 75 1001.7
20260505161544 26 216 4.8 4.8 0.00 0.00 0.00 75 1001.7
20260505161041 26 207 3.2 3.2 0.00 0.00 0.00 76 1001.8
20260505160539 26 213 3.2 3.2 0.00 0.00 0.00 75 1002.0
20260505153015 25 193 1.6 3.2 0.00 0.00 0.00 78 1001.8
20260505152512 25 246 3.2 3.2 0.00 0.00 0.00 78 1001.4
20260505152008 25 216 4.8 4.8 0.00 0.00 0.00 77 1001.9
20260505151503 26 216 4.8 8.0 0.00 0.00 0.00 77 1001.7
20260505151000 25 240 3.2 4.8 0.00 0.00 0.00 78 1001.8
20260505150457 25 234 1.6 1.6 0.00 0.00 0.00 80 1001.9
20260505140427 23 357 1.6 3.2 0.00 0.00 0.00 84 1001.7
20260505124841 22 249 3.2 3.2 0.00 0.00 0.00 87 1001.0
20260505124338 21 239 3.2 4.8 0.00 0.00 0.00 87 1001.1
20260505123834 21 262 4.8 8.0 0.00 0.00 0.00 88 1001.2
20260505123330 21 253 4.8 4.8 0.00 0.00 0.00 88 1000.9
20260505122826 21 266 1.6 3.2 0.00 0.00 0.00 88 1001.0
20260505122324 21 314 3.2 3.2 0.00 0.00 0.00 88 1000.9
20260505121820 21 349 1.6 3.2 0.00 0.00 0.00 88 1001.0
20260505121318 21 248 3.2 3.2 0.00 0.00 0.00 88 1000.7
20260505120814 21 204 0.0 1.6 0.00 0.00 0.00 88 1000.7
20260505120310 21 227 3.2 3.2 0.00 0.00 0.00 88 1000.7
20260505115808 21 86 3.2 4.8 0.00 0.00 0.00 88 1000.8
20260505115306 21 201 6.4 11.3 0.00 0.00 0.00 88 1000.7
20260505114804 21 228 3.2 3.2 0.00 0.00 0.00 88 1000.7
20260505114300 21 225 3.2 4.8 0.00 0.00 0.00 88 1000.7
20260505113756 21 221 3.2 3.2 0.00 0.00 0.00 88 1000.8
20260505113253 21 226 8.0 11.3 0.00 0.00 0.00 87 1000.6
20260505112748 21 132 3.2 3.2 0.00 0.00 0.00 87 1000.5
20260505112246 21 234 6.4 9.7 0.00 0.00 0.00 88 1000.5
20260505111747 21 253 3.2 3.2 0.00 0.00 0.00 87 1000.5
20260505111243 21 284 1.6 3.2 0.00 0.00 0.00 87 1000.5
20260505110739 21 227 3.2 4.8 0.00 0.00 0.00 87 1000.5
20260505110237 21 176 3.2 4.8 0.00 0.00 0.00 87 1000.5
20260505102212 21 221 1.6 1.6 0.00 0.00 0.00 87 1000.4
20260505101711 21 5 3.2 4.8 0.00 0.00 0.00 87 1000.6
20260505101206 21 224 4.8 9.7 0.00 0.00 0.00 87 1000.7
20260505100703 22 5 4.8 4.8 0.00 0.00 0.00 86 1000.5
20260505100200 22 244 4.8 8.0 0.00 0.00 0.00 86 1000.6
20260505095655 21 241 3.2 3.2 0.00 0.00 0.00 86 1000.8
20260505095153 22 281 4.8 4.8 0.00 0.00 0.00 86 1000.3
20260505094649 22 311 4.8 4.8 0.00 0.00 0.00 86 1000.7
20260505094145 22 220 1.6 1.6 0.00 0.00 0.00 86 1000.7
20260505093642 22 355 3.2 4.8 0.00 0.00 0.00 86 1000.6
20260505093139 22 240 3.2 4.8 0.00 0.00 0.00 86 1000.8
20260505092636 22 202 1.6 3.2 0.00 0.00 0.00 86 1000.8
20260505092135 22 217 3.2 8.0 0.00 0.00 0.00 86 1000.8
20260505091631 22 234 3.2 3.2 0.00 0.00 0.00 86 1000.9
20260505091129 22 229 3.2 3.2 0.00 0.00 0.00 86 1000.8
20260505090627 22 207 1.6 3.2 0.00 0.00 0.00 86 1001.1
20260505090125 22 127 4.8 8.0 0.00 0.00 0.00 85 1000.7
20260505085622 22 255 6.4 8.0 0.00 0.00 0.00 85 1000.9
20260505085120 22 214 4.8 4.8 0.00 0.00 0.00 85 1000.8
20260505084618 22 214 4.8 4.8 0.00 0.00 0.00 85 1000.8
20260505084116 22 203 3.2 3.2 0.00 0.00 0.00 85 1000.9
20260505083613 22 231 3.2 4.8 0.00 0.00 0.00 84 1001.0
20260505083109 22 219 4.8 4.8 0.00 0.00 0.00 84 1001.0
20260505082605 22 251 4.8 12.9 0.00 0.00 0.00 84 1000.8
20260505082103 22 302 3.2 4.8 0.00 0.00 0.00 84 1001.1
20260505081559 22 159 4.8 12.9 0.00 0.00 0.00 84 1001.0